EW8311 Weather Reports


time (UTC)temp
F
wind
direction
speed
knots
gust
knots
rain 1hr
in
rain 24hr
in
rain mn
in
humidity
%
barometer
mb
20260903181531 87 268 0.9 3.5 0.00 0.00 0.00 52 1007.1
20260903180012 85 264 0.9 3.5 0.00 0.00 0.00 53 1007.2
20260903174511 85 309 0.0 3.5 0.00 0.00 0.00 52 1007.5
20260903173010 85 261 0.0 3.5 0.00 0.00 0.00 52 1007.6
20260903171519 85 242 0.9 2.6 0.00 0.00 0.00 54 1007.6
20260903170005 84 108 1.7 3.5 0.00 0.00 0.00 55 1007.5
20260903164503 83 262 0.9 3.5 0.00 0.00 0.00 59 1007.6
20260903163005 82 133 0.9 4.3 0.00 0.00 0.00 59 1007.7
20260903161604 81 116 0.0 1.7 0.00 0.00 0.00 61 1007.6
20260903160105 81 103 0.9 2.6 0.00 0.00 0.00 62 1007.8
20260903154558 80 96 0.0 1.7 0.00 0.00 0.00 64 1007.8
20260903153057 79 107 0.0 1.7 0.00 0.00 0.00 65 1007.8
20260903151559 79 99 0.9 2.6 0.00 0.00 0.00 66 1007.7
20260903150114 79 98 0.0 3.5 0.00 0.00 0.00 66 1007.7
20260903144555 79 108 0.0 0.9 0.00 0.00 0.00 67 1007.7
20260903143059 78 113 0.0 2.6 0.00 0.00 0.00 67 1007.7
20260903141557 78 122 0.0 1.7 0.00 0.00 0.00 68 1007.6
20260903140052 77 309 0.0 0.0 0.00 0.00 0.00 72 1007.5
20260903134550 77 309 0.0 0.0 0.00 0.00 0.00 71 1007.4
20260903133049 78 309 0.0 0.0 0.00 0.00 0.00 68 1007.2
20260903131548 78 309 0.0 0.0 0.00 0.00 0.00 64 1007.2
20260903130047 77 309 0.0 0.0 0.00 0.00 0.00 66 1007.0
20260903124558 77 309 0.0 0.0 0.00 0.00 0.00 66 1006.9
20260903123046 77 309 0.9 2.6 0.00 0.00 0.00 67 1006.7
20260903121548 77 351 0.0 0.9 0.00 0.00 0.00 69 1006.6
20260903120045 76 99 0.0 0.0 0.00 0.00 0.00 71 1006.5
20260903114604 77 102 0.0 0.0 0.00 0.00 0.00 71 1006.4
20260903113042 77 102 0.0 0.0 0.00 0.00 0.00 71 1006.4
20260903111548 77 102 0.0 0.0 0.00 0.00 0.00 71 1006.4
20260903110043 78 103 0.0 0.9 0.00 0.00 0.00 65 1006.5
20260903104538 77 274 0.0 0.0 0.00 0.00 0.00 68 1006.6
20260903103046 78 274 0.0 0.0 0.00 0.00 0.00 69 1006.7
20260903101543 78 272 0.0 0.0 0.00 0.00 0.00 68 1006.8
20260903100041 78 272 0.0 0.0 0.00 0.00 0.00 68 1006.8
20260903094536 77 272 0.0 0.9 0.00 0.00 0.00 71 1006.8
20260903093100 77 272 0.0 0.0 0.00 0.00 0.00 73 1006.8
20260903091534 77 272 0.0 0.0 0.00 0.00 0.00 72 1006.8
20260903090037 77 272 0.0 0.0 0.00 0.00 0.00 71 1006.7
20260903084530 77 272 0.0 0.0 0.00 0.00 0.00 71 1006.8
20260903083030 77 124 0.0 0.0 0.00 0.00 0.00 71 1006.8
20260903081534 78 124 0.0 0.0 0.00 0.00 0.00 69 1006.9
20260903080023 80 124 0.0 0.0 0.00 0.00 0.00 62 1006.9
20260903074526 80 116 0.0 1.7 0.00 0.00 0.00 61 1007.0
20260903073023 80 97 0.0 0.9 0.00 0.00 0.00 61 1007.0
20260903071517 81 98 0.9 3.5 0.00 0.00 0.00 58 1007.0
20260903070017 81 315 0.0 0.9 0.00 0.00 0.00 58 1006.7
20260903064513 81 300 0.0 0.0 0.00 0.00 0.00 58 1006.6
20260903063013 82 291 0.0 0.9 0.00 0.00 0.00 56 1006.7
20260903061512 82 291 0.0 0.9 0.00 0.00 0.00 55 1006.8
20260903060015 81 291 0.0 0.0 0.00 0.00 0.00 57 1006.8
20260903054513 82 291 0.0 0.0 0.00 0.00 0.00 55 1006.9
20260903053011 82 291 0.0 1.7 0.00 0.00 0.00 55 1007.0
20260903051511 80 306 1.7 3.5 0.00 0.00 0.00 57 1007.0
20260903050010 81 98 0.0 0.0 0.00 0.00 0.00 59 1006.9
20260903044510 81 98 0.0 0.0 0.00 0.00 0.00 55 1006.9
20260903043015 82 98 0.0 0.0 0.00 0.00 0.00 54 1006.7
20260903041517 82 98 0.0 0.0 0.00 0.00 0.00 57 1006.6
20260903040009 83 49 0.0 0.9 0.00 0.00 0.00 53 1006.6
20260903034513 83 107 0.0 0.0 0.00 0.00 0.00 54 1006.5
20260903033007 84 107 0.0 0.9 0.00 0.00 0.00 49 1006.4
20260903031506 83 83 0.0 0.9 0.00 0.00 0.00 52 1006.1
20260903030006 82 334 0.0 0.0 0.00 0.00 0.00 53 1005.8
20260903024505 82 334 0.0 0.0 0.00 0.00 0.00 54 1005.7
20260903023020 83 334 0.0 0.0 0.00 0.00 0.00 53 1005.5
20260903021505 84 334 0.0 0.0 0.00 0.00 0.00 50 1005.3
20260903020004 84 334 0.0 0.0 0.00 0.00 0.00 51 1005.5
20260903014504 85 334 0.0 0.0 0.00 0.00 0.00 50 1005.6
20260903013003 87 334 0.0 0.9 0.00 0.00 0.00 47 1005.4
20260903011502 87 341 1.7 3.5 0.00 0.00 0.00 46 1005.2
20260903010002 88 318 2.6 5.2 0.00 0.00 0.00 43 1005.2
20260903004501 90 289 1.7 3.5 0.00 0.00 0.00 43 1005.0
20260903003114 89 262 0.0 3.5 0.00 0.00 0.00 43 1005.1
20260903001600 90 332 0.9 4.3 0.00 0.00 0.00 42 1005.1
20260903000108 91 322 2.6 4.3 0.00 0.00 0.00 42 1005.0
20260902234605 94 299 0.9 4.3 0.00 0.00 0.00 38 1005.0
20260902233059 94 318 2.6 6.1 0.00 0.00 0.00 39 1004.9
20260902231556 93 269 2.6 7.0 0.00 0.00 0.00 38 1005.2
20260902230105 93 224 2.6 6.1 0.00 0.00 0.00 39 1005.4
20260902224610 92 218 2.6 7.8 0.00 0.00 0.00 40 1005.6
20260902223110 91 72 3.5 7.0 0.00 0.00 0.00 42 1005.6
20260902221558 90 278 1.7 5.2 0.00 0.00 0.00 40 1005.7
20260902220051 89 268 1.7 6.1 0.00 0.00 0.00 40 1005.9
20260902214615 90 256 2.6 7.0 0.00 0.00 0.00 41 1005.9
20260902213051 91 295 1.7 7.8 0.00 0.00 0.00 40 1005.8
20260902211551 92 242 5.2 10.4 0.00 0.00 0.00 39 1006.0
20260902210050 94 272 2.6 8.7 0.00 0.00 0.00 38 1006.0
20260902204546 94 327 4.3 9.6 0.00 0.00 0.00 38 1006.1
20260902203043 94 310 3.5 7.0 0.00 0.00 0.00 39 1006.4
20260902201550 94 252 4.3 7.0 0.00 0.00 0.00 39 1006.4
20260902200039 93 330 2.6 7.0 0.00 0.00 0.00 40 1006.7
20260902194540 92 327 3.5 7.0 0.00 0.00 0.00 42 1007.1
20260902193034 92 301 2.6 6.1 0.00 0.00 0.00 44 1007.3
20260902191529 91 252 2.6 7.0 0.00 0.00 0.00 45 1007.6
20260902190025 91 255 1.7 7.8 0.00 0.00 0.00 43 1007.9
20260902184523 89 253 1.7 6.1 0.00 0.00 0.00 47 1008.1
20260902183021 90 299 2.6 5.2 0.00 0.00 0.00 47 1008.2